Waarnemingen

Advertentie
Mijn weer
Salon, Frankrijk (7648): temperatuur & dauwpunt: 28.06.2020 06:00:00 - 04.07.2020 06:00:00 (CEST)Salon, Frankrijk (7648): temperatuur 5cm: 28.06.2020 06:00:00 - 04.07.2020 06:00:00 (CEST)Salon, Frankrijk (7648): windsnelheid & windstoten: 28.06.2020 06:00:00 - 04.07.2020 06:00:00 (CEST)Salon, Frankrijk (7648): windrichting: 28.06.2020 06:00:00 - 04.07.2020 06:00:00 (CEST)Salon, Frankrijk (7648): luchtdruk: 28.06.2020 06:00:00 - 04.07.2020 06:00:00 (CEST)Salon, Frankrijk (7648): zicht: 28.06.2020 06:00:00 - 04.07.2020 06:00:00 (CEST)Salon, Frankrijk (7648): neerslag: 28.06.2020 06:00:00 - 04.07.2020 06:00:00 (CEST)
Datum & Tijd tt [°C] td [°C] tt 5cm [°C] ff [km/u] ff [kn] fx [km/u] fx [kn] dd ppp [hPa] vv [km] rr [mm]
04.07.2020 06:00:00 19,1 9,6 17,8 20 11 33 18 NNW 1017,2 60 0,0
04.07.2020 05:00:00 19,4 9,3 18,4 19 11 38 20 NNW 1016,7 60 0,0
04.07.2020 04:00:00 19,9 9,2 18,7 16 9 41 22 NW 1016,7 60 0,0
04.07.2020 03:00:00 20,4 9,0 19,6 17 9 39 21 NW 1016,5 60 0,0
04.07.2020 02:00:00 20,7 9,0 19,9 25 13 48 26 NW 1016,2 60 0,0
04.07.2020 01:00:00 21,3 8,9 20,6 29 15 51 27 NW 1016,1 60 0,0
04.07.2020 00:00:00 21,9 8,7 21,0 26 14 61 33 NW 1016,2 60 0,0
03.07.2020 23:00:00 22,8 8,9 22,0 40 21 63 34 NNW 1015,6 60 0,0
03.07.2020 22:00:00 23,3 7,8 22,7 29 16 65 35 NW 1014,5 60 0,0
03.07.2020 21:00:00 24,1 8,5 23,8 35 19 66 36 NW 1014,5 29 0,0
03.07.2020 20:00:00 25,1 9,4 26,7 37 20 76 41 NNW 1014,0 28 0,0
03.07.2020 19:00:00 25,8 8,7 28,7 48 26 79 43 NNW 1013,2 17 0,0
03.07.2020 18:00:00 26,5 8,9 29,7 49 26 83 45 NNW 1013,2 18 0,0
03.07.2020 17:00:00 26,6 9,4 31,2 32 17 64 34 NW 1013,5 19 0,0
03.07.2020 16:00:00 26,9 9,7 31,7 34 18 65 35 NNW 1013,6 18 0,0
03.07.2020 15:00:00 26,5 9,4 30,9 39 21 79 43 NW 1013,9 22 0,0
03.07.2020 14:00:00 25,9 10,1 29,9 35 19 66 35 NW 1014,5 24 0,0
03.07.2020 13:00:00 25,1 10,2 28,9 39 21 63 34 NW 1015,2 22 0,0
03.07.2020 12:00:00 24,4 10,3 27,1 27 15 69 37 NW 1015,4 25 0,0
03.07.2020 11:00:00 23,6 10,3 26,1 35 19 61 33 NNW 1015,2 27 0,0
03.07.2020 10:00:00 22,3 10,4 24,2 35 19 57 31 NNW 1015,5 30 0,0
03.07.2020 09:00:00 21,2 10,4 21,8 39 21 62 33 NNW 1015,6 35 0,0
03.07.2020 08:00:00 20,1 11,0 19,5 28 15 49 26 NW 1015,4 43 0,0
03.07.2020 07:00:00 19,4 10,9 18,5 34 18 53 29 NNW 1015,3 50 0,0
03.07.2020 06:00:00 19,5 10,8 18,6 29 16 54 29 NW 1015,3 60 0,0
03.07.2020 05:00:00 19,8 11,8 19,0 27 15 44 24 NNW 1015,0 60 0,0
03.07.2020 04:00:00 20,2 11,9 19,3 22 12 37 20 NW 1015,0 60 0,0
03.07.2020 03:00:00 21,0 11,6 20,0 25 13 42 23 NNW 1014,6 60 0,0
03.07.2020 02:00:00 22,1 11,5 21,1 31 17 53 29 NNW 1014,5 60 0,0
03.07.2020 01:00:00 22,0 13,4 21,3 31 17 49 27 NNW 1014,0 60 0,0
03.07.2020 00:00:00 22,6 14,4 22,0 23 12 47 26 NW 1013,5 60 0,0
02.07.2020 23:00:00 24,1 16,9 23,4 23 13 48 26 NNW 1012,9 60 0,0
02.07.2020 22:00:00 26,1 17,7 22,1 7 4 13 7 NW 1012,0 59 0,0
02.07.2020 21:00:00 28,6 17,2 27,7 6 3 15 8 WZW 1011,4 60 0,0
02.07.2020 20:00:00 29,1 17,0 29,3 7 4 23 13 W 1011,6 60 0,0
02.07.2020 19:00:00 31,5 17,8 35,7 13 7 24 13 W 1011,3 60 0,0
02.07.2020 18:00:00 31,2 17,1 32,1 13 7 29 15 W 1011,1 60 0,0
02.07.2020 17:00:00 31,4 16,9 32,5 14 8 33 18 NW 1011,5 60 0,0
02.07.2020 16:00:00 32,0 16,3 39,3 10 6 30 16 WNW 1011,6 55 0,0
02.07.2020 15:00:00 31,7 17,9 28,4 5 3 14 8 WZW 1012,1 27 0,0
02.07.2020 14:00:00 27,0 18,6 26,9 10 5 16 9 WZW 1013,0 60 0,0
02.07.2020 13:00:00 26,9 18,5 27,4 9 5 26 14 WNW 1012,6 54 0,0
02.07.2020 12:00:00 26,5 18,1 27,2 13 7 26 14 NNW 1012,3 60 0,0
02.07.2020 11:00:00 26,2 18,6 28,5 14 8 26 14 N 1012,3 50 0,0
02.07.2020 10:00:00 25,2 17,9 27,9 16 8 24 13 N 1012,8 41 0,0
02.07.2020 09:00:00 23,9 17,9 26,3 9 5 19 11 NW 1013,1 52 0,0
02.07.2020 08:00:00 22,4 17,3 20,4 5 3 16 8 NO 1012,6 50 0,0
02.07.2020 07:00:00 19,7 17,1 18,2 4 2 16 9 ONO 1012,3 60 0,0
02.07.2020 06:00:00 19,9 17,1 16,2 7 4 17 9 N 1012,1 60 0,0
02.07.2020 05:00:00 19,7 16,9 17,1 9 5 14 8 NNW 1012,3 60 0,0
02.07.2020 04:00:00 20,5 16,9 17,0 4 2 8 5 N 1012,2 60 0,0
02.07.2020 03:00:00 21,2 17,0 18,4 7 4 11 6 NNO 1012,3 60 0,0
02.07.2020 02:00:00 21,0 18,8 19,7 3 2 7 4 ZW 1012,7 35 0,0
02.07.2020 01:00:00 21,5 19,2 18,9 4 2 6 4 WZW 1012,5 41 0,0
02.07.2020 00:00:00 21,2 18,8 19,0 4 2 6 3 NNO 1012,7 47 0,0
01.07.2020 23:00:00 23,0 19,4 21,0 4 2 8 4 Z 1012,5 52 0,0
01.07.2020 22:00:00 23,6 19,1 22,4 6 4 8 5 ZW 1012,2 53 0,0
01.07.2020 21:00:00 24,6 19,2 23,8 2 1 15 8 WZW 1012,1 60 0,0
01.07.2020 20:00:00 25,3 19,7 26,4 9 5 21 11 ZZW 1012,1 60 0,0
01.07.2020 19:00:00 26,7 17,7 28,9 11 6 26 14 ZW 1012,0 60 0,0
01.07.2020 18:00:00 27,6 19,1 34,3 17 9 29 16 ZW 1011,7 42 0,0
01.07.2020 17:00:00 28,0 19,5 35,0 15 8 27 15 ZW 1011,6 39 0,0
01.07.2020 16:00:00 28,5 20,5 36,1 18 10 30 16 ZW 1011,9 28 0,0
01.07.2020 15:00:00 29,3 19,9 36,8 16 9 28 15 ZW 1012,1 24 0,0
01.07.2020 14:00:00 28,8 20,3 33,1 8 4 27 15 ZZW 1012,1 22 0,0
01.07.2020 13:00:00 28,2 20,7 32,2 13 7 27 15 ZZW 1012,4 34 0,0
01.07.2020 12:00:00 27,9 20,5 35,0 4 2 17 9 NNW 1012,3 20 0,0
01.07.2020 11:00:00 26,6 19,0 31,9 3 1 13 7 NNW 1012,5 46 0,0
01.07.2020 10:00:00 24,8 19,2 25,3 4 2 11 6 NNO 1012,6 50 0,0
01.07.2020 09:00:00 22,6 19,4 20,9 2 1 28 15 ZZO 1012,3 20 0,0
01.07.2020 08:00:00 20,7 18,8 19,2 9 5 23 12 O 1011,8 18 0,0
01.07.2020 07:00:00 20,1 18,6 19,2 8 4 18 10 O 1013,0 17 0,0
01.07.2020 06:00:00 19,8 17,9 19,0 10 5 13 7 NO 1013,1 28 0,0
01.07.2020 05:00:00 19,3 18,0 18,1 3 2 9 5 OZO 1013,0 20 0,0
01.07.2020 04:00:00 18,7 17,5 16,6 7 4 12 6 NO 1012,8 19 0,0
01.07.2020 03:00:00 18,5 17,2 16,9 8 5 10 5 NO 1012,4 16 0,0
01.07.2020 02:00:00 20,3 18,6 18,3 2 1 18 10 NNO 1013,0 25 0,0
01.07.2020 01:00:00 19,3 17,6 18,2 7 4 11 6 NO 1013,5 35 0,0
01.07.2020 00:00:00 21,0 18,8 19,3 4 2 9 5 ZZO 1013,6 29 0,0
30.06.2020 23:00:00 21,8 19,0 19,9 4 2 10 5 ZZO 1013,3 27 0,0
30.06.2020 22:00:00 22,7 18,5 20,9 5 3 12 6 Z 1012,7 58 0,0
30.06.2020 21:00:00 25,5 12,3 24,4 9 5 21 11 ZZW 1012,3 60 0,0
30.06.2020 20:00:00 28,2 9,9 31,7 13 7 27 14 ZW 1012,0 60 0,0
30.06.2020 19:00:00 29,1 12,9 33,9 15 8 26 14 ZW 1011,7 51 0,0
30.06.2020 18:00:00 29,9 11,9 35,2 17 9 32 17 ZW 1011,6 50 0,0
30.06.2020 17:00:00 30,7 11,6 37,2 19 10 29 16 ZW 1011,8 55 0,0
30.06.2020 16:00:00 31,9 11,7 39,1 6 3 24 13 W 1011,8 60 0,0
30.06.2020 15:00:00 31,3 8,9 37,8 13 7 27 15 NW 1012,4 60 0,0
30.06.2020 14:00:00 30,3 8,7 35,9 14 8 27 14 NW 1012,9 47 0,0
30.06.2020 13:00:00 29,3 8,9 33,5 17 9 26 14 NW 1013,2 47 0,0
30.06.2020 12:00:00 27,6 12,8 30,7 13 7 27 15 WNW 1013,2 49 0,0
30.06.2020 11:00:00 25,9 13,1 29,3 16 9 28 15 NW 1013,3 - 0,0
30.06.2020 10:00:00 24,7 12,6 27,3 16 9 27 14 NW 1013,3 - 0,0
30.06.2020 09:00:00 23,0 12,0 24,5 14 7 24 13 NW 1013,5 60 0,0
30.06.2020 08:00:00 21,9 12,2 21,1 8 4 22 12 NW 1013,5 54 0,0
30.06.2020 07:00:00 20,8 11,7 15,1 7 4 16 9 WNW 1013,1 37 0,0
30.06.2020 06:00:00 18,4 12,6 13,7 2 1 7 4 ZZW 1012,7 60 0,0
30.06.2020 05:00:00 18,8 12,3 15,7 4 2 11 6 ZW 1012,6 60 0,0
30.06.2020 04:00:00 19,5 12,5 15,6 6 3 9 5 W 1012,9 60 0,0
30.06.2020 03:00:00 20,3 13,0 17,0 2 1 11 6 WNW 1013,3 60 0,0
30.06.2020 02:00:00 21,6 14,0 20,0 5 3 15 8 ZZW 1013,6 60 0,0
30.06.2020 01:00:00 22,5 14,6 20,9 6 3 18 10 WZW 1013,6 60 0,0
30.06.2020 00:00:00 23,4 14,7 21,9 9 5 18 10 W 1013,5 60 0,0
29.06.2020 23:00:00 24,8 14,6 23,5 9 5 29 16 W 1013,4 60 0,0
29.06.2020 22:00:00 26,1 15,8 25,3 19 10 37 20 WZW 1012,8 60 0,0
29.06.2020 21:00:00 27,6 16,6 27,2 21 12 40 22 WZW 1012,6 53 0,0
29.06.2020 20:00:00 29,5 16,7 31,8 19 10 40 22 W 1012,3 56 0,0
29.06.2020 19:00:00 31,2 13,9 35,3 18 10 37 20 WNW 1012,3 60 0,0
29.06.2020 18:00:00 31,8 15,3 36,7 16 9 44 24 W 1012,6 58 0,0
29.06.2020 17:00:00 - - - - - - - - - - -
29.06.2020 16:00:00 31,8 15,7 38,6 21 11 35 19 W 1013,6 45 0,0
29.06.2020 15:00:00 31,1 16,3 37,4 13 7 32 18 NW 1014,2 40 0,0
29.06.2020 14:00:00 30,5 16,5 34,5 18 10 32 17 NW 1014,8 38 0,0
29.06.2020 13:00:00 29,7 16,1 32,9 20 11 37 20 NNW 1015,2 38 0,0
29.06.2020 12:00:00 28,8 16,4 32,8 24 13 39 21 NNW 1015,5 38 0,0
29.06.2020 11:00:00 27,6 16,9 31,0 18 10 31 17 NW 1015,6 42 0,0
29.06.2020 10:00:00 26,4 17,5 28,2 16 9 27 15 NW 1016,0 39 0,0
29.06.2020 09:00:00 24,9 18,1 25,9 12 6 28 15 NW 1016,1 36 0,0
29.06.2020 08:00:00 23,1 19,1 20,9 6 4 13 7 NNW 1015,6 45 0,0
29.06.2020 07:00:00 20,0 18,5 17,6 0 0 12 7 N 1015,3 12 0,0
29.06.2020 06:00:00 18,9 17,9 15,9 3 2 6 3 NNW 1014,7 11 0,0
29.06.2020 05:00:00 19,7 18,5 17,1 0 0 8 4 N 1014,7 11 0,0
29.06.2020 04:00:00 19,7 18,5 17,2 4 2 9 5 ONO 1015,0 11 0,0
29.06.2020 03:00:00 20,1 18,9 18,0 5 3 9 5 O 1015,2 13 0,0
29.06.2020 02:00:00 20,5 19,2 18,9 6 3 11 6 ONO 1015,8 14 0,0
29.06.2020 01:00:00 21,1 19,7 19,5 4 2 12 7 NO 1016,0 17 0,0
29.06.2020 00:00:00 21,8 19,9 20,1 5 3 10 6 OZO 1016,4 18 0,0
28.06.2020 23:00:00 23,3 20,8 22,3 4 2 13 7 Z 1016,1 27 0,0
28.06.2020 22:00:00 23,8 20,5 22,9 8 4 16 8 ZZW 1015,8 31 0,0
28.06.2020 21:00:00 25,3 20,5 24,8 9 5 20 11 ZZW 1015,4 41 0,0
28.06.2020 20:00:00 27,2 19,8 27,3 10 6 23 12 ZZW 1015,1 23 0,0
28.06.2020 19:00:00 28,4 19,6 31,8 15 8 28 15 ZZW 1015,0 51 0,0
28.06.2020 18:00:00 29,4 18,5 33,3 19 10 28 15 ZZW 1014,8 46 0,0
28.06.2020 17:00:00 30,5 18,2 37,3 16 9 29 16 ZZW 1015,0 54 0,0
28.06.2020 16:00:00 31,2 17,9 38,2 19 10 27 15 ZZW 1015,2 60 0,0
28.06.2020 15:00:00 31,4 15,0 38,5 6 4 17 9 WZW 1015,4 60 0,0
28.06.2020 14:00:00 30,8 16,4 36,5 7 4 22 12 NNW 1016,1 60 0,0
28.06.2020 13:00:00 29,6 15,7 32,9 6 4 16 9 NW 1016,7 60 0,0
28.06.2020 12:00:00 28,8 14,6 31,1 8 4 16 8 N 1017,1 52 0,0
28.06.2020 11:00:00 26,8 14,9 29,3 8 4 15 8 NW 1017,3 60 0,0
28.06.2020 10:00:00 24,9 16,1 27,3 8 4 16 8 NW 1017,3 60 0,0
28.06.2020 09:00:00 22,7 16,0 23,9 0 0 6 3 N 1017,3 49 0,0
28.06.2020 08:00:00 19,7 15,1 15,0 4 2 10 5 NNO 1017,0 59 0,0
28.06.2020 07:00:00 15,8 13,6 11,7 6 4 9 5 NO 1017,0 39 0,0
28.06.2020 06:00:00 15,0 13,4 11,9 4 2 6 4 NNO 1017,3 39 0,0

tt = temperatuur
td = dauwpunt
tt 5cm = temperatuur 5cm
ff = windsnelheid
fx = windstoten
dd = windrichting
ppp = luchtdruk
vv = zicht
rr = neerslag

Weerstations in de omgeving